Location: Dötzum
(52.0808°N, 9.8063°E)
Time: 03:54:44
(UTC+00:00)

YAOGAN 11 - Pass Details

Date: 27 May 2022
Orbit: 613 x 666 km, 98.4° (Epoch: 24 June)

Event Time Altitude Azimuth Distance (km) Brightness Sun altitude
Exits shadow 01:09:45 - 161° (SSE) 2,121 6.4 -12.7°
Reaches altitude 10° 01:09:57 10° 161° (SSE) 2,037 6.3 -12.7°
Maximum altitude 01:14:24 86° 74° (ENE) 661 4.2 -12.4°
Drops below altitude 10° 01:18:58 10° 346° (NNW) 2,084 7.5 -12.0°
Sets 01:21:13 0° 346° (NNW) 3,007 8.4 -11.9°
